Location: Gajan
(43.0218°N, 1.1244°E)
Time: 02:06:48
(UTC+00:00)

Cosmos 1850 Rocket - Pass Details

Date: 22 April 2021
Orbit: 753 x 786 km, 74.0° (Epoch: 15 May)

Event Time Altitude Azimuth Distance (km) Brightness Sun altitude
Exits shadow 22:08:07 61° 301° (WNW) 863 4.3 -29.4°
Drops below altitude 10° 22:13:11 10° 14° (NNE) 2,313 7.0 -29.9°
Sets 22:15:37 0° 18° (NNE) 3,249 7.8 -30.1°
